Home > Weather > Valletta > Past weeks

Flag for Malta Past Weather in Valletta, Malta — Yesterday and Last 2 Weeks

Now
66 °F

Passing clouds.


Feels Like: 66 °F
Forecast: 65 / 78 °F
Wind: 5 mph from North

Location: Luqa

Current Time: May 31, 2016 at 2:12:39 AM

Latest Report: May 31, 2016 at 1:45 AM


Visibility: N/A

Pressure: 29.98 "Hg

Humidity: 60%

Dew Point: 52 °F

Location of VallettaLocation

Past Weather in Valletta — Graph

°F

Valletta Temperature Yesterday

Maximum temperature yesterday: 84 °F (at 12:45 PM)
Minimum temperature yesterday: 66 °F (at 3:45 AM)
Average temperature yesterday: 74 °F

High & Low Weather Summary for the Past Weeks

 TemperatureHumidityPressure
High84 °F (May 29, 3:15 PM)100% (May 23, 5:15 AM)30.15 "Hg (May 23, 5:15 AM)
Low57 °F (May 18, 5:15 AM)18% (May 24, 3:15 PM)29.80 "Hg (May 20, 4:15 AM)
Average69 °F64%30.00 "Hg
* Reported May 16 1:15 AM — May 31 1:15 AM, Valletta, Weather by CustomWeather, © 2016

Note: Actual official high and low records may vary slightly from our data, if they occured in-between our weather recording intervals... More about our weather records

Advertising

Valletta Weather History for the Previous 24 Hours

Scroll right to see more
 ConditionsComfort  
Time TempWeatherWind HumidityBarometerVisibility
1:15 AM
Tue, May 31
66 °FClear.8 mph60%30.01 "Hg10 mi
12:45 AM66 °FClear.9 mph60%29.98 "Hg10 mi
12:15 AM68 °FClear.12 mph56%29.98 "Hg10 mi
11:45 PM
Mon, May 30
66 °FClear.12 mph64%29.98 "Hg10 mi
11:15 PM68 °FClear.14 mph60%29.98 "Hg10 mi
10:45 PM68 °FClear.9 mph60%29.98 "Hg10 mi
10:15 PM68 °FClear.12 mph60%29.98 "Hg10 mi
9:45 PM68 °FClear.13 mph56%29.98 "Hg10 mi
9:15 PM70 °FPassing clouds.8 mph50%29.98 "HgN/A
8:45 PM70 °FSunny.12 mph50%29.98 "Hg10 mi
8:15 PM70 °FSunny.14 mph53%29.98 "Hg10 mi
7:45 PM72 °FSunny.13 mph50%29.98 "Hg10 mi
7:15 PM73 °FSunny.14 mph44%29.98 "Hg10 mi
6:45 PM77 °FSunny.13 mph34%29.98 "Hg10 mi
6:15 PM79 °FSunny.14 mph32%29.95 "Hg10 mi
5:45 PM79 °FSunny.15 mph34%29.95 "Hg10 mi
5:15 PM81 °FSunny.15 mph32%29.95 "Hg10 mi
4:45 PM82 °FSunny.16 mph23%29.95 "Hg10 mi
4:15 PM82 °FSunny.15 mph30%29.95 "Hg10 mi
3:45 PM82 °FSunny.17 mph28%29.95 "Hg10 mi
3:15 PM84 °FSunny.18 mph27%29.98 "Hg10 mi
2:45 PM82 °FSunny.18 mph26%29.98 "Hg10 mi
2:15 PM84 °FSunny.20 mph25%29.98 "Hg10 mi
1:45 PM82 °FSunny.21 mph25%29.98 "Hg10 mi
1:15 PM84 °FSunny.20 mph22%29.98 "Hg10 mi
12:45 PM84 °FSunny.24 mph20%29.98 "Hg10 mi
12:15 PM82 °FSunny.23 mph25%29.98 "Hg10 mi
11:45 AM81 °FSunny.20 mph34%29.98 "Hg10 mi
11:15 AM81 °FSunny.20 mph34%29.98 "Hg10 mi
10:45 AM81 °FSunny.21 mph37%29.98 "Hg10 mi
10:15 AM79 °FSunny.18 mph42%29.98 "Hg10 mi
9:45 AM77 °FSunny.18 mph42%29.98 "Hg10 mi
9:15 AM77 °FSunny.16 mph44%29.95 "Hg10 mi
8:45 AM73 °FSunny.13 mph57%29.95 "Hg10 mi
8:15 AM72 °FSunny.15 mph65%29.95 "Hg10 mi
7:45 AM72 °FSunny.14 mph65%29.95 "Hg10 mi
7:15 AM70 °FSunny.14 mph64%29.92 "Hg10 mi
6:45 AM68 °FPassing clouds.7 mph73%29.92 "HgN/A
6:15 AM66 °FClear.13 mph78%29.92 "Hg10 mi
5:45 AM68 °FClear.15 mph69%29.92 "Hg10 mi
5:15 AM68 °FClear.14 mph73%29.92 "Hg10 mi
4:45 AM66 °FClear.13 mph78%29.92 "Hg10 mi
4:15 AM66 °FClear.12 mph78%29.92 "Hg10 mi
3:45 AM66 °FClear.12 mph83%29.92 "Hg10 mi
3:15 AM68 °FClear.14 mph78%29.92 "Hg10 mi
2:45 AM68 °FClear.14 mph73%29.92 "Hg10 mi
2:15 AM68 °FClear.16 mph73%29.92 "Hg10 mi
Weather by CustomWeather, © 2016

See weather overviewHow to use our weather pages